Flag for Germany Weather past 2 weeks in Königswinter, North Rhine-Westphalia, Germany

Now
58 °F

Overcast.


Feels Like: 59 °F
Forecast: 55 / 75 °F
Wind: 3 mph from Southeast

Location: Bonn-Hangelar

Current Time: Sep 16, 2014 at 5:26:45 AM

Latest Report: Sep 16, 2014 at 5:00 AM


Visibility: 6 mi

Pressure: 29.98 "Hg

Humidity: 90%

Dew point: 55 °F

Location of KönigswinterLocation

Historic Weather in Königswinter — Graph

°F

Königswinter temperature yesterday

Maximum temperature yesterday: 70 °F (at 4:00 PM)
Minimum temperature yesterday: 53 °F (at 6:00 AM)
Average temperature yesterday: 60 °F

Past Weeks' High & Low Weather Summary

 TemperatureHumidityPressure
High74 °F (Sep 5, 4:00 PM)99% (Sep 1, 7:00 AM)30.27 "Hg (Sep 1, 7:00 AM)
Low47 °F (Sep 12, 7:00 AM)52% (Sep 10, 3:00 PM)29.90 "Hg (Sep 6, 6:00 PM)
Average60 °F81%30.09 "Hg
* Reported Sep 1 4:00 AM — Sep 16 4:00 AM, Königswinter, Weather by CustomWeather, © 2014

Note: Actual official high and low records may vary slightly from our data, if they occured in-between our weather recording intervals... More about our weather records

Advertising

Königswinter weather history for previous 24 hours

 ConditionsComfort  
Time TempWeatherWind HumidityBarometerVisibility
4:00 AM
Sep 16
60 °FOvercast.2 mph87%29.99 "Hg7 mi
3:00 AM60 °FOvercast.2 mph89%30.00 "Hg7 mi
2:00 AM57 °FOvercast.2 mph94%30.01 "Hg5 mi
1:00 AM58 °FOvercast.2 mph92%30.00 "Hg6 mi
12:00 AM57 °FOvercast.2 mph92%30.01 "Hg5 mi
11:00 PM
Sep 15
60 °FPassing clouds.2 mph89%30.00 "Hg7 mi
10:00 PM60 °FOvercast.2 mph87%30.00 "Hg9 mi
9:00 PM63 °FPassing clouds.3 mph80%29.99 "Hg12 mi
8:00 PM65 °FPassing clouds.3 mph75%29.98 "Hg22 mi
7:00 PM68 °FPartly sunny.5 mph67%29.97 "Hg25 mi
6:00 PM69 °FPartly sunny.7 mph65%29.97 "Hg25 mi
4:00 PM70 °FPartly sunny.6 mph62%29.98 "Hg25 mi
3:00 PM67 °FOvercast.5 mph69%29.99 "Hg22 mi
2:00 PM65 °FOvercast.3 mph76%30.01 "Hg19 mi
1:00 PM64 °FOvercast.5 mph77%30.02 "Hg12 mi
12:00 PM64 °FPartly sunny.5 mph78%30.03 "Hg9 mi
11:00 AM62 °FOvercast.3 mph79%30.03 "Hg12 mi
10:00 AM59 °FPartly sunny.5 mph88%30.03 "Hg6 mi
9:00 AM59 °FFog.1 mph85%30.02 "Hg6 mi
8:00 AM54 °FFog.2 mph96%30.04 "Hg4 mi
7:00 AM53 °FFog.2 mph96%30.03 "Hg4 mi
6:00 AM53 °FPassing clouds.2 mph96%30.04 "Hg7 mi
5:00 AM55 °FFog.6 mph93%30.04 "Hg4 mi
Weather by CustomWeather, © 2014

See weather overviewHow to use our weather pages